QPF
0.00 0.01 0.02 0.02 0.01 0.00 0.00 0.00 0.01 0.02 0.02 0.02 0.02 0.04 0.06 0.07 0.06 0.06 0.05 0.04 0.04 0.03 0.03 0.05 0.07 0.09 0.11 0.11 0.09 0.10 0.10 0.09 0.07 0.06 0.05 0.04 0.02 0.02 0.02 0.01 0.01 0.01 0.01
0.00 0.00 0.01 0.01 0.00 0.00 0.00 0.02 0.04 0.06 0.06 0.05 0.06 0.08 0.08 0.07 0.06 0.06 0.05 0.05 0.04 0.02 0.02 0.04 0.06 0.09 0.13 0.13 0.10 0.09 0.10 0.09 0.08 0.07 0.07 0.05 0.03 0.02 0.01 0.01 0.01 0.00 0.00
0.00 0.00 0.00 0.00 0.01 0.01 0.01 0.03 0.08 0.10 0.09 0.07 0.07 0.07 0.06 0.06 0.07 0.07 0.07 0.07 0.05 0.03 0.02 0.04 0.05 0.07 0.09 0.10 0.08 0.07 0.08 0.08 0.06 0.06 0.05 0.04 0.02 0.01 0.01 0.00 0.00 0.00 0.00
0.00 0.00 0.00 0.00 0.00 0.01 0.02 0.05 0.09 0.12 0.12 0.10 0.09 0.08 0.07 0.08 0.09 0.09 0.08 0.07 0.05 0.04 0.03 0.03 0.04 0.05 0.05 0.05 0.05 0.04 0.05 0.04 0.03 0.03 0.03 0.02 0.02 0.02 0.01 0.01 0.00 0.00 0.00
0.00 0.00 0.00 0.01 0.01 0.01 0.03 0.04 0.08 0.12 0.15 0.15 0.16 0.14 0.13 0.15 0.16 0.12 0.11 0.11 0.11 0.08 0.05 0.03 0.03 0.02 0.02 0.02 0.03 0.03 0.03 0.03 0.03 0.02 0.02 0.02 0.02 0.02 0.02 0.01 0.00 0.00 0.00
0.01 0.01 0.01 0.01 0.01 0.02 0.03 0.05 0.07 0.11 0.14 0.16 0.20 0.21 0.21 0.21 0.19 0.17 0.15 0.11 0.08 0.04 0.02 0.01 0.01 0.01 0.01 0.01 0.02 0.02 0.02 0.02 0.02 0.02 0.02 0.02 0.03 0.03 0.02 0.02 0.01 0.01 0.00
0.01 0.01 0.01 0.01 0.02 0.02 0.03 0.04 0.05 0.08 0.12 0.16 0.20 0.23 0.23 0.22 0.17 0.13 0.10 0.07 0.04 0.03 0.02 0.01 0.01 0.01 0.01 0.01 0.01 0.01 0.02 0.02 0.02 0.02 0.02 0.02 0.02 0.02 0.01 0.01 0.01 0.00 0.00
0.01 0.01 0.02 0.02 0.02 0.03 0.04 0.04 0.04 0.06 0.09 0.12 0.17 0.18 0.17 0.16 0.13 0.11 0.09 0.06 0.04 0.02 0.01 0.01 0.01 0.00 0.01 0.01 0.01 0.01 0.01 0.01 0.01 0.01 0.01 0.01 0.01 0.01 0.01 0.01 0.00 0.00 0.00
0.01 0.02 0.02 0.02 0.02 0.03 0.03 0.04 0.04 0.05 0.06 0.08 0.09 0.10 0.10 0.09 0.07 0.06 0.05 0.03 0.02 0.01 0.00 0.00 0.00 0.00 0.00 0.00 0.01 0.01 0.01 0.01 0.01 0.01 0.00 0.01 0.01 0.00 0.00 0.00 0.00 0.00 0.00
0.01 0.02 0.02 0.02 0.03 0.03 0.04 0.04 0.04 0.04 0.05 0.05 0.04 0.04 0.04 0.03 0.02 0.02 0.01 0.01 0.01 0.00 0.00 0.00 0.00 0.00 0.00 0.00 0.00 0.00 0.00 0.00 0.00 0.00 0.00 0.00 0.00 0.00 0.00 0.00 0.00 0.00 0.00
0.01 0.01 0.01 0.02 0.03 0.03 0.03 0.03 0.03 0.03 0.03 0.02 0.02 0.01 0.01 0.01 0.00 0.00 0.00 0.00 0.00 0.00 0.00 0.00 0.00 0.00 0.00 0.00 0.00 0.00 0.00 0.00 0.00 0.00 0.00 0.00 0.00 0.00 0.00 0.00 0.00 0.00 0.00
0.01 0.01 0.01 0.02 0.02 0.01 0.01 0.01 0.01 0.01 0.01 0.01 0.01 0.01 0.01 0.00 0.00 0.00 0.00 0.00 0.00 0.00 0.00 0.00 0.00 0.00 0.00 0.00 0.00 0.00 0.00 0.00 0.00 0.00 0.00 0.00 0.00 0.00 0.00 0.01 0.00 0.00 0.01
0.02 0.02 0.02 0.02 0.01 0.01 0.01 0.01 0.01 0.01 0.01 0.01 0.01 0.01 0.01 0.00 0.00 0.00 0.00 0.00 0.00 0.00 0.00 0.00 0.00 0.00 0.00 0.00 0.00 0.00 0.00 0.00 0.00 0.00 0.00 0.00 0.00 0.01 0.01 0.01 0.01 0.01 0.01
0.02 0.02 0.02 0.01 0.01 0.01 0.01 0.01 0.01 0.01 0.01 0.01 0.01 0.01 0.01 0.01 0.01 0.00 0.00 0.00 0.00 0.00 0.00 0.00 0.00 0.00 0.00 0.00 0.00 0.00 0.00 0.00 0.00 0.00 0.00 0.01 0.01 0.01 0.01 0.01 0.01 0.02 0.02
0.05 0.03 0.03 0.02 0.01 0.01 0.01 0.01 0.01 0.01 0.01 0.01 0.01 0.01 0.01 0.00 0.00 0.00 0.00 0.00 0.00 0.00 0.00 0.00 0.00 0.00 0.00 0.00 0.00 0.00 0.00 0.00 0.00 0.01 0.01 0.01 0.01 0.01 0.00 0.00 0.01 0.02 0.02
0.11 0.09 0.08 0.06 0.05 0.05 0.04 0.03 0.03 0.02 0.01 0.01 0.01 0.01 0.00 0.00 0.00 0.00 0.01 0.01 0.01 0.01 0.00 0.00 0.00 0.00 0.00 0.00 0.00 0.00 0.00 0.00 0.01 0.01 0.01 0.01 0.01 0.01 0.01 0.01 0.01 0.01 0.02
0.20 0.17 0.15 0.13 0.12 0.10 0.09 0.07 0.06 0.04 0.03 0.02 0.01 0.00 0.00 0.00 0.00 0.00 0.01 0.01 0.01 0.01 0.01 0.00 0.01 0.01 0.00 0.00 0.00 0.00 0.00 0.00 0.01 0.02 0.02 0.01 0.01 0.02 0.03 0.02 0.01 0.01 0.02
0.23 0.21 0.19 0.16 0.13 0.11 0.08 0.06 0.04 0.02 0.01 0.00 0.00 0.00 0.00 0.01 0.01 0.01 0.00 0.00 0.00 0.01 0.01 0.01 0.01 0.02 0.01 0.00 0.00 0.00 0.00 0.01 0.01 0.01 0.02 0.02 0.03 0.02 0.01 0.00 0.01 0.02 0.04
0.16 0.14 0.12 0.09 0.07 0.05 0.03 0.02 0.01 0.01 0.00 0.00 0.00 0.00 0.01 0.01 0.01 0.00 0.00 0.01 0.01 0.01 0.01 0.01 0.01 0.02 0.01 0.00 0.00 0.00 0.00 0.01 0.01 0.01 0.01 0.02 0.03 0.01 0.00 0.00 0.01 0.02 0.03
0.08 0.07 0.05 0.04 0.03 0.02 0.01 0.01 0.01 0.01 0.01 0.01 0.01 0.01 0.01 0.01 0.01 0.01 0.01 0.01 0.01 0.01 0.01 0.01 0.01 0.01 0.02 0.00 0.00 0.00 0.00 0.01 0.00 0.01 0.02 0.02 0.01 0.00 0.00 0.00 0.01 0.02 0.02
0.03 0.03 0.02 0.02 0.01 0.01 0.01 0.01 0.01 0.02 0.01 0.01 0.01 0.02 0.01 0.01 0.01 0.01 0.01 0.01 0.01 0.02 0.03 0.02 0.02 0.02 0.01 0.00 0.00 0.00 0.00 0.00 0.00 0.01 0.02 0.04 0.00 0.00 0.00 0.00 0.01 0.02 0.01
0.02 0.02 0.02 0.02 0.02 0.02 0.03 0.03 0.02 0.02 0.01 0.01 0.02 0.02 0.02 0.00 0.01 0.02 0.02 0.02 0.03 0.03 0.04 0.03 0.03 0.03 0.02 0.01 0.00 0.00 0.00 0.00 0.01 0.02 0.03 0.03 0.00 0.00 0.00 0.00 0.01 0.00 0.01
0.02 0.02 0.02 0.02 0.03 0.03 0.04 0.03 0.03 0.01 0.02 0.03 0.02 0.02 0.01 0.00 0.01 0.02 0.02 0.03 0.03 0.03 0.03 0.03 0.03 0.02 0.03 0.02 0.00 0.00 0.00 0.00 0.01 0.02 0.01 0.00 0.00 0.00 0.03 0.02 0.01 0.02 0.06
0.02 0.02 0.02 0.03 0.03 0.03 0.02 0.03 0.02 0.02 0.04 0.05 0.04 0.02 0.02 0.01 0.01 0.01 0.01 0.02 0.03 0.02 0.02 0.03 0.02 0.02 0.02 0.01 0.00 0.00 0.00 0.00 0.01 0.01 0.01 0.01 0.02 0.02 0.04 0.04 0.06 0.08 0.07
0.02 0.02 0.02 0.02 0.01 0.01 0.01 0.01 0.01 0.02 0.05 0.06 0.05 0.03 0.01 0.01 0.01 0.02 0.01 0.01 0.01 0.00 0.00 0.01 0.01 0.01 0.01 0.00 0.00 0.00 0.00 0.00 0.00 0.00 0.02 0.03 0.03 0.03 0.04 0.05 0.05 0.06 0.06
0.01 0.01 0.00 0.00 0.00 0.00 0.01 0.01 0.01 0.01 0.02 0.04 0.04 0.03 0.01 0.01 0.02 0.03 0.04 0.01 0.00 0.00 0.00 0.00 0.00 0.00 0.00 0.00 0.00 0.00 0.00 0.00 0.00 0.01 0.02 0.03 0.02 0.02 0.03 0.03 0.04 0.05 0.06
MSLP
1004.64 1005.06 1005.40 1005.63 1005.79 1005.96 1006.19 1006.56 1007.12 1007.87 1008.76 1009.74 1010.71 1011.62 1012.40 1013.04 1013.54 1013.94 1014.28 1014.61 1014.96 1015.34 1015.74 1016.15 1016.54 1016.90 1017.22 1017.51 1017.79 1018.08 1018.40 1018.76 1019.13 1019.50 1019.82 1020.07 1020.21 1020.25 1020.18 1020.06 1019.91 1019.79 1019.73
1005.83 1006.28 1006.57 1006.68 1006.67 1006.63 1006.65 1006.84 1007.26 1007.91 1008.77 1009.76 1010.79 1011.77 1012.64 1013.36 1013.93 1014.38 1014.78 1015.14 1015.52 1015.93 1016.36 1016.79 1017.18 1017.53 1017.82 1018.07 1018.29 1018.52 1018.77 1019.06 1019.38 1019.71 1020.00 1020.23 1020.35 1020.37 1020.27 1020.10 1019.89 1019.70 1019.56
1007.33 1007.82 1008.06 1008.07 1007.89 1007.64 1007.46 1007.44 1007.69 1008.22 1009.00 1009.97 1011.01 1012.04 1012.97 1013.75 1014.39 1014.90 1015.34 1015.76 1016.17 1016.61 1017.06 1017.50 1017.89 1018.22 1018.48 1018.67 1018.83 1018.98 1019.16 1019.39 1019.66 1019.95 1020.22 1020.44 1020.55 1020.55 1020.43 1020.22 1019.96 1019.69 1019.47
1009.01 1009.54 1009.76 1009.67 1009.35 1008.92 1008.54 1008.34 1008.42 1008.81 1009.50 1010.41 1011.43 1012.47 1013.43 1014.26 1014.94 1015.50 1015.98 1016.42 1016.87 1017.32 1017.78 1018.22 1018.60 1018.90 1019.13 1019.27 1019.37 1019.46 1019.58 1019.76 1019.99 1020.25 1020.51 1020.71 1020.83 1020.82 1020.69 1020.44 1020.13 1019.79 1019.49
1010.69 1011.26 1011.46 1011.31 1010.88 1010.33 1009.79 1009.44 1009.38 1009.65 1010.24 1011.08 1012.06 1013.08 1014.04 1014.88 1015.58 1016.16 1016.65 1017.11 1017.56 1018.01 1018.46 1018.88 1019.25 1019.53 1019.71 1019.82 1019.88 1019.93 1020.00 1020.14 1020.34 1020.58 1020.83 1021.04 1021.16 1021.15 1021.01 1020.74 1020.38 1019.99 1019.60
1012.20 1012.80 1013.00 1012.81 1012.33 1011.70 1011.08 1010.64 1010.48 1010.67 1011.18 1011.95 1012.87 1013.85 1014.78 1015.59 1016.27 1016.84 1017.32 1017.76 1018.18 1018.61 1019.04 1019.44 1019.77 1020.02 1020.18 1020.27 1020.30 1020.32 1020.38 1020.49 1020.67 1020.90 1021.15 1021.35 1021.47 1021.47 1021.32 1021.04 1020.66 1020.22 1019.77
1013.41 1014.01 1014.22 1014.03 1013.55 1012.91 1012.28 1011.81 1011.62 1011.77 1012.22 1012.94 1013.80 1014.72 1015.59 1016.35 1016.99 1017.50 1017.93 1018.32 1018.70 1019.08 1019.47 1019.82 1020.13 1020.36 1020.51 1020.58 1020.60 1020.62 1020.66 1020.76 1020.94 1021.15 1021.39 1021.59 1021.71 1021.70 1021.56 1021.27 1020.88 1020.42 1019.95
1014.23 1014.83 1015.05 1014.89 1014.45 1013.87 1013.30 1012.87 1012.72 1012.87 1013.31 1013.98 1014.79 1015.63 1016.43 1017.11 1017.66 1018.10 1018.46 1018.77 1019.09 1019.41 1019.74 1020.05 1020.33 1020.54 1020.68 1020.75 1020.78 1020.80 1020.84 1020.94 1021.10 1021.30 1021.52 1021.70 1021.81 1021.81 1021.67 1021.40 1021.02 1020.56 1020.09
1014.70 1015.28 1015.51 1015.41 1015.06 1014.58 1014.12 1013.80 1013.73 1013.93 1014.38 1015.02 1015.78 1016.54 1017.25 1017.83 1018.28 1018.62 1018.88 1019.11 1019.35 1019.60 1019.88 1020.16 1020.41 1020.62 1020.76 1020.84 1020.88 1020.91 1020.96 1021.04 1021.18 1021.35 1021.53 1021.69 1021.79 1021.78 1021.65 1021.40 1021.05 1020.63 1020.19
1014.92 1015.47 1015.71 1015.68 1015.44 1015.11 1014.80 1014.63 1014.67 1014.94 1015.42 1016.05 1016.74 1017.42 1018.02 1018.49 1018.83 1019.07 1019.24 1019.38 1019.54 1019.74 1019.98 1020.23 1020.47 1020.68 1020.83 1020.93 1020.99 1021.02 1021.06 1021.12 1021.22 1021.35 1021.49 1021.61 1021.68 1021.66 1021.54 1021.32 1021.02 1020.65 1020.25
1015.04 1015.56 1015.82 1015.87 1015.76 1015.58 1015.45 1015.43 1015.60 1015.95 1016.45 1017.06 1017.69 1018.27 1018.76 1019.11 1019.34 1019.48 1019.57 1019.65 1019.76 1019.92 1020.13 1020.37 1020.61 1020.83 1021.00 1021.12 1021.18 1021.21 1021.23 1021.26 1021.31 1021.38 1021.46 1021.53 1021.56 1021.53 1021.42 1021.23 1020.97 1020.65 1020.31
1015.23 1015.72 1016.01 1016.13 1016.14 1016.13 1016.16 1016.29 1016.57 1016.98 1017.50 1018.07 1018.63 1019.11 1019.48 1019.73 1019.86 1019.91 1019.94 1019.97 1020.06 1020.20 1020.41 1020.66 1020.92 1021.15 1021.34 1021.46 1021.53 1021.54 1021.53 1021.51 1021.50 1021.50 1021.51 1021.52 1021.50 1021.45 1021.34 1021.17 1020.95 1020.68 1020.39
1015.62 1016.08 1016.39 1016.58 1016.70 1016.83 1017.00 1017.26 1017.62 1018.08 1018.59 1019.10 1019.57 1019.94 1020.20 1020.34 1020.39 1020.39 1020.37 1020.39 1020.48 1020.64 1020.86 1021.13 1021.41 1021.66 1021.86 1021.98 1022.03 1022.02 1021.96 1021.88 1021.80 1021.72 1021.66 1021.60 1021.53 1021.44 1021.33 1021.17 1020.97 1020.74 1020.47
1016.24 1016.67 1017.00 1017.25 1017.47 1017.70 1017.98 1018.33 1018.74 1019.21 1019.68 1020.12 1020.49 1020.75 1020.91 1020.96 1020.95 1020.91 1020.88 1020.91 1021.02 1021.20 1021.46 1021.75 1022.05 1022.31 1022.50 1022.61 1022.64 1022.59 1022.48 1022.33 1022.17 1022.02 1021.88 1021.75 1021.63 1021.50 1021.36 1021.20 1021.01 1020.78 1020.51
1017.07 1017.47 1017.81 1018.10 1018.38 1018.69 1019.04 1019.44 1019.87 1020.31 1020.72 1021.07 1021.34 1021.50 1021.57 1021.56 1021.50 1021.44 1021.42 1021.47 1021.61 1021.83 1022.11 1022.42 1022.73 1022.98 1023.16 1023.25 1023.24 1023.14 1022.97 1022.77 1022.54 1022.31 1022.10 1021.91 1021.74 1021.57 1021.40 1021.21 1021.00 1020.75 1020.47
1018.01 1018.38 1018.71 1019.02 1019.35 1019.70 1020.08 1020.49 1020.90 1021.30 1021.64 1021.90 1022.07 1022.14 1022.13 1022.07 1021.99 1021.93 1021.92 1022.00 1022.17 1022.41 1022.71 1023.03 1023.33 1023.56 1023.71 1023.77 1023.72 1023.57 1023.36 1023.09 1022.81 1022.53 1022.26 1022.01 1021.78 1021.57 1021.36 1021.13 1020.89 1020.60 1020.28
1018.94 1019.28 1019.59 1019.90 1020.23 1020.59 1020.98 1021.37 1021.75 1022.09 1022.35 1022.54 1022.62 1022.62 1022.56 1022.46 1022.37 1022.31 1022.33 1022.43 1022.61 1022.87 1023.16 1023.47 1023.74 1023.94 1024.06 1024.07 1023.98 1023.80 1023.55 1023.25 1022.92 1022.60 1022.29 1021.99 1021.72 1021.46 1021.20 1020.93 1020.63 1020.30 1019.93
1019.77 1020.05 1020.33 1020.62 1020.94 1021.29 1021.65 1022.01 1022.34 1022.62 1022.82 1022.94 1022.97 1022.92 1022.82 1022.71 1022.62 1022.57 1022.60 1022.71 1022.89 1023.14 1023.41 1023.68 1023.92 1024.08 1024.16 1024.13 1024.01 1023.81 1023.53 1023.21 1022.87 1022.52 1022.18 1021.85 1021.53 1021.22 1020.91 1020.59 1020.24 1019.86 1019.44
1020.41 1020.65 1020.88 1021.14 1021.42 1021.74 1022.06 1022.38 1022.67 1022.90 1023.05 1023.12 1023.12 1023.05 1022.94 1022.83 1022.74 1022.71 1022.74 1022.85 1023.02 1023.23 1023.47 1023.70 1023.89 1024.01 1024.05 1024.00 1023.86 1023.65 1023.37 1023.05 1022.70 1022.34 1021.98 1021.61 1021.26 1020.90 1020.54 1020.16 1019.76 1019.33 1018.88
1020.88 1021.06 1021.25 1021.45 1021.69 1021.96 1022.25 1022.53 1022.77 1022.97 1023.09 1023.15 1023.13 1023.07 1022.97 1022.87 1022.80 1022.77 1022.80 1022.89 1023.03 1023.22 1023.41 1023.59 1023.74 1023.82 1023.84 1023.78 1023.65 1023.44 1023.18 1022.87 1022.52 1022.15 1021.76 1021.37 1020.97 1020.56 1020.14 1019.71 1019.26 1018.80 1018.32
1021.20 1021.33 1021.46 1021.62 1021.81 1022.04 1022.28 1022.52 1022.74 1022.91 1023.03 1023.08 1023.08 1023.04 1022.96 1022.89 1022.83 1022.81 1022.84 1022.91 1023.03 1023.17 1023.32 1023.46 1023.58 1023.65 1023.66 1023.61 1023.49 1023.30 1023.06 1022.76 1022.41 1022.03 1021.62 1021.18 1020.73 1020.26 1019.79 1019.31 1018.82 1018.34 1017.85
1021.42 1021.51 1021.59 1021.71 1021.85 1022.03 1022.24 1022.45 1022.64 1022.81 1022.93 1023.00 1023.02 1023.01 1022.97 1022.92 1022.89 1022.88 1022.90 1022.96 1023.05 1023.17 1023.29 1023.41 1023.51 1023.58 1023.60 1023.56 1023.47 1023.31 1023.08 1022.79 1022.44 1022.03 1021.58 1021.09 1020.58 1020.05 1019.52 1018.99 1018.47 1017.98 1017.50
1021.59 1021.65 1021.70 1021.77 1021.88 1022.02 1022.19 1022.38 1022.56 1022.72 1022.85 1022.94 1022.99 1023.01 1023.00 1022.98 1022.97 1022.98 1023.00 1023.06 1023.14 1023.24 1023.35 1023.47 1023.58 1023.66 1023.70 1023.69 1023.62 1023.48 1023.26 1022.96 1022.59 1022.14 1021.64 1021.09 1020.50 1019.91 1019.32 1018.75 1018.21 1017.71 1017.26
1021.74 1021.78 1021.81 1021.85 1021.93 1022.04 1022.18 1022.34 1022.50 1022.66 1022.80 1022.90 1022.98 1023.02 1023.04 1023.05 1023.06 1023.08 1023.12 1023.18 1023.26 1023.37 1023.50 1023.63 1023.75 1023.86 1023.93 1023.94 1023.89 1023.76 1023.54 1023.22 1022.80 1022.30 1021.73 1021.11 1020.45 1019.79 1019.15 1018.55 1018.00 1017.51 1017.09
1021.88 1021.91 1021.93 1021.95 1022.00 1022.09 1022.20 1022.33 1022.48 1022.62 1022.75 1022.85 1022.94 1022.99 1023.03 1023.06 1023.09 1023.13 1023.18 1023.26 1023.37 1023.50 1023.66 1023.82 1023.97 1024.11 1024.20 1024.24 1024.20 1024.06 1023.81 1023.46 1022.99 1022.42 1021.78 1021.08 1020.36 1019.65 1018.97 1018.35 1017.80 1017.33 1016.94
1022.00 1022.03 1022.05 1022.06 1022.09 1022.15 1022.23 1022.33 1022.44 1022.56 1022.66 1022.75 1022.82 1022.88 1022.92 1022.96 1023.01 1023.06 1023.15 1023.26 1023.40 1023.56 1023.75 1023.95 1024.14 1024.31 1024.42 1024.47 1024.42 1024.26 1023.98 1023.58 1023.05 1022.42 1021.72 1020.96 1020.19 1019.44 1018.74 1018.12 1017.58 1017.14 1016.79
Thickness
5829 5830 5828 5827 5826 5822 5816 5809 5801 5794 5787 5778 5771 5764 5758 5754 5749 5744 5739 5734 5728 5724 5719 5714 5708 5703 5698 5691 5686 5680 5674 5669 5666 5663 5661 5661 5661 5660 5660 5658 5656 5655 5653
5809 5811 5812 5814 5814 5812 5810 5804 5797 5789 5782 5774 5767 5760 5753 5747 5742 5736 5730 5725 5720 5715 5711 5706 5701 5696 5691 5685 5679 5673 5667 5662 5658 5655 5652 5649 5651 5652 5653 5651 5648 5647 5645
5790 5793 5796 5798 5799 5799 5801 5798 5791 5783 5776 5768 5760 5752 5744 5737 5730 5725 5719 5714 5710 5705 5701 5697 5693 5688 5683 5677 5672 5667 5662 5655 5650 5648 5645 5640 5638 5637 5641 5640 5639 5637 5635
5775 5775 5775 5777 5780 5784 5790 5789 5782 5775 5767 5760 5752 5744 5735 5726 5721 5715 5709 5703 5698 5693 5690 5686 5682 5678 5673 5668 5663 5658 5654 5650 5643 5639 5636 5632 5628 5624 5624 5628 5628 5627 5625
5758 5756 5756 5758 5762 5767 5771 5772 5768 5761 5755 5749 5742 5734 5726 5718 5711 5704 5697 5690 5685 5681 5677 5673 5670 5666 5661 5656 5651 5647 5643 5639 5634 5629 5625 5621 5617 5614 5609 5610 5612 5612 5612
5740 5738 5738 5740 5742 5746 5749 5750 5747 5742 5738 5733 5728 5721 5714 5706 5698 5691 5684 5678 5672 5667 5663 5659 5656 5652 5648 5643 5639 5635 5631 5627 5622 5618 5614 5609 5606 5602 5598 5596 5596 5596 5596
5723 5720 5720 5721 5722 5725 5726 5727 5726 5722 5719 5716 5710 5705 5699 5693 5685 5678 5672 5666 5659 5654 5650 5646 5643 5638 5635 5630 5626 5622 5618 5614 5609 5605 5601 5597 5593 5589 5586 5583 5581 5580 5580
5707 5704 5703 5703 5704 5706 5708 5708 5707 5703 5701 5698 5693 5689 5684 5678 5671 5665 5658 5652 5646 5641 5636 5632 5629 5625 5621 5617 5613 5609 5605 5600 5596 5592 5588 5583 5580 5576 5572 5568 5565 5564 5564
5691 5689 5688 5688 5689 5690 5690 5690 5689 5686 5684 5680 5676 5672 5667 5661 5655 5649 5644 5638 5632 5627 5623 5619 5616 5612 5607 5603 5600 5595 5591 5586 5582 5578 5574 5569 5565 5562 5558 5554 5550 5546 5546
5677 5675 5674 5674 5674 5674 5674 5674 5673 5671 5668 5664 5661 5656 5650 5646 5641 5635 5629 5624 5618 5614 5610 5606 5601 5598 5593 5589 5584 5581 5577 5573 5568 5564 5559 5555 5551 5547 5542 5538 5534 5531 5529
5666 5664 5663 5662 5662 5661 5661 5659 5657 5655 5651 5648 5644 5640 5635 5630 5625 5620 5614 5609 5604 5600 5596 5591 5587 5583 5579 5574 5570 5566 5562 5558 5552 5548 5544 5539 5535 5530 5525 5520 5516 5513 5509
5656 5654 5652 5651 5650 5648 5647 5645 5642 5639 5635 5632 5627 5623 5618 5613 5608 5603 5598 5593 5589 5585 5580 5576 5572 5568 5563 5559 5554 5549 5545 5541 5536 5531 5527 5523 5518 5513 5508 5504 5499 5495 5491
5643 5641 5639 5638 5636 5634 5631 5629 5626 5623 5619 5614 5609 5604 5599 5595 5590 5585 5581 5576 5572 5568 5564 5560 5556 5552 5547 5542 5536 5531 5527 5523 5519 5514 5510 5507 5503 5498 5494 5488 5484 5481 5477
5629 5626 5624 5622 5619 5617 5614 5611 5607 5604 5600 5595 5590 5585 5580 5576 5571 5567 5563 5559 5555 5551 5547 5544 5539 5534 5528 5522 5516 5511 5508 5506 5502 5499 5496 5493 5489 5485 5480 5475 5471 5468 5463
5613 5610 5607 5604 5601 5597 5594 5591 5587 5584 5580 5575 5570 5565 5561 5557 5553 5549 5545 5541 5538 5535 5531 5526 5522 5516 5508 5501 5495 5491 5491 5488 5486 5485 5483 5480 5477 5474 5468 5463 5459 5454 5450
5597 5593 5589 5586 5582 5578 5574 5571 5567 5563 5560 5555 5551 5546 5543 5540 5536 5532 5527 5524 5520 5516 5513 5508 5503 5498 5490 5482 5478 5475 5473 5473 5472 5472 5470 5467 5466 5463 5457 5452 5447 5443 5440
5582 5576 5572 5568 5564 5560 5556 5553 5549 5545 5541 5537 5533 5529 5526 5523 5520 5516 5511 5507 5503 5499 5495 5490 5486 5480 5471 5467 5464 5461 5460 5460 5460 5459 5457 5455 5454 5450 5445 5441 5439 5437 5435
5568 5564 5559 5554 5550 5546 5543 5539 5534 5530 5526 5522 5518 5515 5512 5508 5504 5499 5495 5490 5486 5483 5478 5474 5470 5465 5457 5452 5450 5448 5449 5450 5449 5447 5445 5444 5441 5437 5432 5431 5431 5432 5432
5555 5551 5547 5543 5539 5534 5530 5526 5522 5517 5513 5509 5505 5502 5498 5493 5488 5483 5478 5474 5471 5467 5463 5460 5456 5452 5445 5440 5437 5435 5437 5439 5437 5436 5436 5434 5431 5426 5423 5424 5426 5428 5429
5544 5540 5537 5532 5527 5522 5518 5514 5510 5505 5501 5497 5492 5488 5483 5477 5472 5467 5463 5460 5456 5452 5449 5446 5443 5439 5435 5429 5426 5423 5425 5426 5425 5426 5426 5425 5422 5420 5419 5419 5422 5425 5427
5533 5530 5526 5521 5516 5511 5507 5502 5499 5494 5489 5484 5479 5474 5469 5464 5459 5453 5449 5446 5443 5439 5436 5434 5431 5427 5423 5419 5415 5413 5413 5414 5414 5417 5418 5419 5417 5418 5419 5419 5421 5424 5426
5524 5520 5516 5511 5506 5502 5498 5493 5488 5483 5478 5472 5466 5461 5456 5452 5447 5441 5437 5434 5431 5429 5426 5423 5421 5417 5413 5410 5407 5406 5405 5405 5407 5410 5413 5415 5416 5418 5420 5423 5425 5426 5427
5515 5511 5508 5502 5498 5493 5488 5483 5477 5472 5467 5460 5454 5449 5444 5440 5435 5431 5427 5424 5421 5419 5416 5414 5411 5408 5405 5403 5400 5400 5401 5402 5404 5407 5409 5412 5416 5419 5423 5426 5428 5429 5430
5509 5505 5501 5495 5490 5485 5480 5474 5469 5463 5457 5450 5444 5439 5434 5429 5425 5421 5419 5416 5412 5409 5407 5404 5402 5400 5398 5395 5393 5394 5397 5399 5402 5404 5408 5413 5418 5422 5424 5427 5430 5431 5432
5503 5499 5494 5488 5483 5479 5473 5468 5462 5456 5449 5442 5436 5431 5426 5422 5418 5414 5408 5406 5400 5397 5395 5394 5393 5391 5391 5387 5386 5387 5392 5394 5398 5401 5408 5415 5419 5423 5426 5429 5432 5433 5434
5497 5492 5488 5483 5478 5473 5467 5461 5456 5450 5442 5436 5430 5425 5420 5416 5414 5410 5404 5397 5395 5391 5388 5386 5384 5385 5383 5384 5387 5389 5392 5396 5400 5404 5410 5415 5418 5422 5425 5429 5432 5434 5435